Location: Knowlton
(51.2333°N, 1.2667°E)
Time: 09:06:19
(UTC+00:00)

CZ-4C R/B - Pass Details

Date: 18 April 2021
Orbit: 612 x 1389 km, 63.4° (Epoch: 05 May)

Event Time Altitude Azimuth Distance (km) Brightness Sun altitude
Rises 22:03:37 0° 284° (WNW) 3,329 5.9 -23.2°
Reaches altitude 10° 22:06:14 10° 297° (WNW) 2,512 5.4 -23.4°
Maximum altitude 22:11:18 28° 356° (N) 1,742 4.4 -23.7°
Drops below altitude 10° 22:17:15 10° 54° (NE) 2,994 5.1 -24.2°
Sets 22:20:41 0° 65° (ENE) 4,087 5.8 -24.4°
